星链-3617 (STARLINK-3617 )

导读

STARLINK-3617是美国太空探索技术公司(SpaceX)研制运营的星链(Starlink)星座卫星,于2022年2月25日发射入轨,属于Starlink v1.5平台,运行在近地轨道,近地点约477公里、远地点约478公里,轨道倾角53.157°,周期约94分钟。它是星链巨型低轨互联网星座的组成部分,旨在为全球偏远、基础设施匮乏地区提供高速低延迟宽带互联网服务,目前仍在正常工作。

Basic Information
目录编号:
51780
目录名称:
STARLINK-3617
国际标识:
2022-017N
轨道中心:
EARTH
卫星名称:
星链-3617
卫星全名:
星链-3617 (STARLINK-3617 )
卫星状态:
在轨 (已飞行1573 天)
发射日期:
2022-02-25 UTC
国别 :
美国 (US)
星等 :
--
Orbit Information
数据来源 国际轨道数据
星历时间: 2026-06-17T19:12:04+0800
7小时前
查看轨道信息
半长轴: 6917.903km
偏心率: 0.0001217
轨道倾角: 53.160°
近地点辐角 88.634°
升交点赤经 251.095°
平近点角 271.479°
近地点: 538.924km
远地点: 540.608km
周期: 95.438分钟
每日圈数: 15.088328
Detailed Information
固有亮度:
5
最大亮度:
2.5
卫星平台:
Starlink v1.5
覆盖范围:
全球
运营商:
太空探索技术公司
运营商所在国:
美国
制造商(研发单位):
太空探索技术公司
制造商所在国:
美国
使用方式:
暂无
Satellite Introduction
星链(Starlink)计划是由太空探索技术公司(SpaceX)提出的一个巨型低轨卫星互联网星座项目,计划在2019年至2024年间在太空搭建由约1.2万颗卫星组成的“星链”网络,其中1584颗将部署在地球上空550千米处的近地轨道,并从2020年开始工作。该卫星仍在工作。
2D Orbit Map
3D Orbit Map
Orbit Altitude Analysis Chart
Orbit Inclination Analysis Chart
Orbit Comprehensive Analysis Chart
View Comprehensive Chart